Location: B
(0.0000°N, 0.0000°E)
Time: 18:24:38
(UTC+02:00)

Cosmos 1025 Rocket - Visible Passes

Search period start: 20 September 2017 00:00
Search period end: 30 September 2017 00:00
Orbit: 594 x 619 km, 82.5° (Epoch: 19 September)

Date Brightness Start Highest point End Pass type
(mag) Time Alt. Az. Time Alt. Az. Time Alt. Az.
22 Sep 5.7 06:18:00 10° SE 06:21:10 20° E 06:24:18 10° NE visible
23 Sep 4.4 06:30:29 10° SSE 06:34:31 40° E 06:38:29 10° NNE visible
24 Sep 2.9 06:43:34 10° S 06:47:51 87° E 06:52:05 10° N visible
25 Sep 3.3 06:57:07 10° SSW 07:01:11 43° W 07:05:13 10° NNW visible
26 Sep 6.1 05:35:14 10° ESE 05:37:12 13° E 05:39:09 10° ENE visible
26 Sep 4.1 07:11:15 10° SW 07:14:30 21° W 07:17:46 10° NW visible
27 Sep 5.1 05:46:59 10° SSE 05:50:32 26° E 05:54:05 10° NE visible
27 Sep 4.9 07:27:02 10° W 07:27:50 10° W 07:28:38 10° WNW visible
28 Sep 3.6 05:59:43 10° S 06:03:53 54° E 06:08:01 10° NNE visible
29 Sep 4.5 06:19:41 24° N 06:19:41 24° N 06:21:26 10° N visible
